Location: Krasnoyarskiy Pitomnik
(51.1333°N, 71.6167°E)
Time: 09:33:08
(UTC+00:00)

ISS - Pass Details

Date: 04 March 2024
Orbit: 413 x 419 km, 51.6° (Epoch: 13 April)

Event Time Altitude Azimuth Distance (km) Brightness Sun altitude
Exits shadow 00:27:05 28° 254° (WSW) 838 -2.8 -14.0°
Maximum altitude 00:28:19 39° 207° (SSW) 653 -3.1 -13.8°
Drops below altitude 10° 00:31:31 10° 137° (SE) 1,514 -0.4 -13.3°
Sets 00:33:41 0° 130° (SE) 2,375 0.8 -13.0°
